Date String (YYYY-MM-DD hh:mm:ss) UTC,Instrument flags,absolute air pressure of the measurement (hPa),sample flow rate (lpm),inlet stack bypass flow (lpm),air temperature of the measurement (°C),ambient temperature measured by the external sensor (°C),aerosol sample conditioner tube jacket temperature (°C),OPC LED temperature (°C),internal box temperature (°C),relative humidity of the measurement (%),span deviation,mass concentration of particles derived from Lorenz-Mie calculation of OPC scattering (μg/m³),mass concentration of particles derived from Lorenz-Mie calculation of OPC scattering (μg/m³),mass concentration of particles derived from Lorenz-Mie calculation of OPC scattering (μg/m³)
DateTimeUTC,F1_M11,P_M11,Q1_M11,Q2_M11,T1_M11,T2_M11,T3_M11,T4_M11,T5_M11,U1_M11,ZSPAN_M11,X0_M11,X2_M11,X1_M11
2024-05-30 10:00:00,SystemResetWarning,0828.7,5.00,000.00,030.7,029.7,000.0,039.3,032.4,015.3,0000.0,0009.87,0003.63,0002.60
2024-05-30 10:01:00,SystemResetWarning,0828.7,5.01,000.00,030.7,029.7,000.0,039.3,032.4,015.5,0000.0,0009.98,0003.61,0002.60
2024-05-30 10:02:00,SystemResetWarning,0828.7,5.01,000.00,030.7,029.7,000.0,039.3,032.4,015.8,0000.0,0010.16,0003.62,0002.58
2024-05-30 10:03:00,SystemResetWarning,0828.7,4.99,000.00,030.7,029.7,000.0,039.3,032.4,015.9,0000.0,0010.04,0003.59,0002.56
2024-05-30 10:04:00,SystemResetWarning,0828.7,4.99,000.00,030.6,029.7,000.0,039.3,032.4,015.9,0000.0,0009.37,0003.60,0002.55
2024-05-30 10:05:00,SystemResetWarning,0828.7,4.99,000.00,030.6,029.7,000.0,039.2,032.4,015.6,0000.0,0009.71,0003.60,0002.52
2024-05-30 10:06:00,SystemResetWarning,0828.7,5.01,000.00,030.6,029.7,000.0,039.2,032.3,015.6,0000.0,0010.12,0003.61,0002.52
2024-05-30 10:07:00,SystemResetWarning,0828.7,5.01,000.00,030.6,029.7,000.0,039.2,032.3,015.0,0000.0,0010.77,0003.61,0002.52
2024-05-30 10:08:00,SystemResetWarning,0828.7,5.00,000.00,030.6,029.7,000.0,039.2,032.3,014.8,0000.0,0010.96,0003.61,0002.51
2024-05-30 10:09:00,SystemResetWarning,0828.7,5.00,000.00,030.6,029.7,000.0,039.2,032.3,014.6,0000.0,0011.13,0003.62,0002.49
2024-05-30 10:10:00,SystemResetWarning,0828.7,4.99,000.00,030.6,029.7,000.0,039.2,032.3,014.4,0000.0,0011.16,0003.63,0002.47
2024-05-30 10:11:00,SystemResetWarning,0828.7,4.99,000.00,030.6,029.7,000.0,039.2,032.3,014.3,0000.0,0010.70,0003.59,0002.47
2024-05-30 10:12:00,SystemResetWarning,0828.7,5.00,000.00,030.6,029.7,000.0,039.2,032.3,014.2,0000.0,0010.33,0003.55,0002.47
2024-05-30 10:13:00,SystemResetWarning,0828.7,5.00,000.00,030.6,029.7,000.0,039.2,032.3,014.5,0000.0,0009.93,0003.51,0002.46
2024-05-30 10:14:00,SystemResetWarning,0828.7,5.00,000.00,030.6,029.6,000.0,039.2,032.3,014.7,0000.0,0010.35,0003.52,0002.47
2024-05-30 10:15:00,SystemResetWarning,0828.7,5.01,000.00,030.6,029.6,000.0,039.2,032.3,014.5,0000.0,0010.54,0003.48,0002.47
2024-05-30 10:16:00,SystemResetWarning,0828.7,5.00,000.00,030.6,029.6,000.0,039.1,032.3,014.5,0000.0,0010.06,0003.46,0002.48
2024-05-30 10:17:00,SystemResetWarning,0828.7,5.01,000.00,030.5,029.6,000.0,039.1,032.3,014.6,0000.0,0009.64,0003.46,0002.48
2024-05-30 10:18:00,SystemResetWarning,0828.7,5.01,000.00,030.5,029.6,000.0,039.1,032.2,014.9,0000.0,0008.99,0003.45,0002.45
2024-05-30 10:19:00,SystemResetWarning,0828.7,5.00,000.00,030.5,029.6,000.0,039.1,032.2,015.1,0000.0,0009.43,0003.47,0002.44
2024-05-30 10:20:00,SystemResetWarning,0828.7,4.99,000.00,030.5,029.6,000.0,039.1,032.2,015.3,0000.0,0009.22,0003.50,0002.44
2024-05-30 10:21:00,SystemResetWarning,0828.7,4.99,000.00,030.5,029.6,000.0,039.1,032.2,015.4,0000.0,0009.50,0003.51,0002.44
2024-05-30 10:22:00,SystemResetWarning,0828.7,5.01,000.00,030.5,029.5,000.0,039.1,032.2,015.5,0000.0,0009.43,0003.49,0002.44
2024-05-30 10:23:00,SystemResetWarning,0828.7,5.01,000.00,030.5,029.5,000.0,039.1,032.2,015.5,0000.0,0009.51,0003.50,0002.44
2024-05-30 10:24:00,SystemResetWarning,0828.7,5.00,000.00,030.5,029.5,000.0,039.1,032.2,015.8,0000.0,0010.27,0003.54,0002.44
2024-05-30 10:25:00,SystemResetWarning,0828.7,5.00,000.00,030.4,029.5,000.0,039.1,032.2,015.8,0000.0,0009.67,0003.53,0002.43
2024-05-30 10:26:00,SystemResetWarning,0828.7,5.00,000.00,030.4,029.5,000.0,039.1,032.1,016.0,0000.0,0008.93,0003.52,0002.43
2024-05-30 10:27:00,SystemResetWarning,0828.7,5.00,000.00,030.4,029.5,000.0,039.1,032.1,015.9,0000.0,0009.25,0003.53,0002.42
2024-05-30 10:28:00,SystemResetWarning,0828.7,5.00,000.00,030.4,029.5,000.0,039.0,032.1,016.1,0000.0,0010.12,0003.51,0002.43
2024-05-30 10:29:00,SystemResetWarning,0828.7,5.01,000.00,030.4,029.4,000.0,039.0,032.1,016.0,0000.0,0010.39,0003.53,0002.45
2024-05-30 10:30:00,SystemResetWarning,0828.7,5.00,000.00,030.4,029.4,000.0,039.0,032.1,016.1,0000.0,0010.13,0003.55,0002.45
2024-05-30 10:31:00,SystemResetWarning,0828.7,4.99,000.00,030.4,029.4,000.0,039.0,032.1,016.2,0000.0,0010.33,0003.55,0002.45
2024-05-30 10:32:00,SystemResetWarning,0828.7,4.99,000.00,030.4,029.4,000.0,039.0,032.1,016.2,0000.0,0010.86,0003.55,0002.46
2024-05-30 10:33:00,SystemResetWarning,0828.7,5.00,000.00,030.4,029.4,000.0,039.0,032.1,016.2,0000.0,0011.01,0003.57,0002.46
2024-05-30 10:34:00,SystemResetWarning,0828.7,5.01,000.00,030.4,029.4,000.0,039.0,032.1,016.3,0000.0,0011.24,0003.60,0002.47
2024-05-30 10:35:00,SystemResetWarning,0828.7,5.00,000.00,030.3,029.4,000.0,039.0,032.0,016.5,0000.0,0011.44,0003.59,0002.48
2024-05-30 10:36:00,SystemResetWarning,0828.7,5.00,000.00,030.3,029.4,000.0,038.9,032.0,016.6,0000.0,0011.54,0003.60,0002.50
2024-05-30 10:37:00,SystemResetWarning,0828.7,4.99,000.00,030.3,029.4,000.0,038.9,032.1,016.6,0000.0,0012.75,0003.59,0002.49
2024-05-30 10:38:00,SystemResetWarning,0828.7,4.99,000.00,030.3,029.4,000.0,038.9,032.0,016.5,0000.0,0012.73,0003.61,0002.50
2024-05-30 10:39:00,SystemResetWarning,0828.7,5.02,000.00,030.3,029.3,000.0,038.9,032.0,016.3,0000.0,0011.79,0003.62,0002.49
2024-05-30 10:40:00,SystemResetWarning,0828.7,5.01,000.00,030.3,029.3,000.0,038.9,032.0,016.4,0000.0,0011.89,0003.65,0002.49
2024-05-30 10:41:00,SystemResetWarning,0828.7,4.99,000.00,030.3,029.3,000.0,038.9,032.0,016.4,0000.0,0012.15,0003.61,0002.48
2024-05-30 10:42:00,SystemResetWarning,0828.7,4.99,000.00,030.3,029.3,000.0,038.9,032.0,016.4,0000.0,0011.95,0003.59,0002.50
2024-05-30 10:43:00,SystemResetWarning,0828.7,4.99,000.00,030.3,029.3,000.0,038.9,032.0,016.2,0000.0,0011.10,0003.54,0002.49
2024-05-30 10:44:00,SystemResetWarning,0828.7,5.01,000.00,030.3,029.3,000.0,038.9,032.0,016.1,0000.0,0011.20,0003.57,0002.49
2024-05-30 10:45:00,SystemResetWarning,0828.8,5.01,000.00,030.2,029.3,000.0,038.8,032.0,015.9,0000.0,0011.61,0003.61,0002.50
2024-05-30 10:46:00,SystemResetWarning,0828.7,5.01,000.00,030.2,029.3,000.0,038.8,032.0,015.7,0000.0,0011.12,0003.66,0002.50
2024-05-30 10:47:00,SystemResetWarning,0828.7,5.00,000.00,030.2,029.3,000.0,038.8,032.0,015.6,0000.0,0010.88,0003.67,0002.49
2024-05-30 10:48:00,SystemResetWarning,0828.8,4.99,000.00,030.2,029.3,000.0,038.8,032.0,015.6,0000.0,0009.96,0003.68,0002.50
2024-05-30 10:49:00,SystemResetWarning,0828.8,4.99,000.00,030.2,029.3,000.0,038.8,032.0,015.6,0000.0,0009.98,0003.70,0002.48
2024-05-30 10:50:00,SystemResetWarning,0828.9,5.00,000.00,030.2,029.3,000.0,038.8,032.0,015.6,0000.0,0009.99,0003.68,0002.48
2024-05-30 10:51:00,SystemResetWarning,0828.9,5.00,000.00,030.2,029.3,000.0,038.8,032.0,015.6,0000.0,0009.66,0003.65,0002.48
2024-05-30 10:52:00,SystemResetWarning,0828.9,5.00,000.00,030.2,029.3,000.0,038.8,032.0,015.8,0000.0,0009.19,0003.62,0002.48
2024-05-30 10:53:00,SystemResetWarning,0829.0,5.00,000.00,030.2,029.3,000.0,038.8,032.0,015.9,0000.0,0008.70,0003.57,0002.46
2024-05-30 10:54:00,SystemResetWarning,0829.0,5.00,000.00,030.2,029.3,000.0,038.7,032.0,015.7,0000.0,0009.05,0003.59,0002.46
2024-05-30 10:55:00,SystemResetWarning,0829.0,5.01,000.00,030.2,029.3,000.0,038.7,032.0,015.8,0000.0,0008.95,0003.57,0002.46
2024-05-30 10:56:00,SystemResetWarning,0829.1,5.01,000.00,030.2,029.3,000.0,038.7,032.0,016.2,0000.0,0008.39,0003.53,0002.45
2024-05-30 10:57:00,SystemResetWarning,0829.1,5.00,000.00,030.2,029.4,000.0,038.7,032.0,016.4,0000.0,0008.09,0003.46,0002.44
2024-05-30 10:58:00,SystemResetWarning,0829.1,4.99,000.00,030.2,029.4,000.0,038.7,032.0,016.2,0000.0,0008.17,0003.41,0002.44
2024-05-30 10:59:00,SystemResetWarning,0829.1,5.00,000.00,030.2,029.4,000.0,038.7,032.0,016.0,0000.0,0008.03,0003.38,0002.42
